IRIDIUM 177

Last updated on Sun Jun 21 2026 00:03:14 GMT+0000 (Coordinated Universal Time)

1 56727U 23068T 26171.43225514 .00000780 00000+0 99100-4 0 9996 2 56727 86.1964 327.2497 0002355 88.7713 271.3778 14.80229741166844
UTC large
Height (km)
Speed (km/s)
/
Latitude / Longitude
Inclination (degrees)
Orbital Period (minutes)
Azimuth
Elevation
Range (km)
Doppler Factor

Next 0 passes for location: London (51.5072 / 0.1276)

No passes found over London.
IRIDIUM 177